TimeCST,TemperatureF,Dew PointF,Humidity,Sea Level PressureIn,VisibilityMPH,Wind Direction,Wind SpeedMPH,Gust SpeedMPH,PrecipitationIn,Events,Conditions,WindDirDegrees,DateUTC
12:13 AM,30.2,28.4,93,29.93,7.0,North,5.8,-,N/A,,Mostly Cloudy,360,2013-02-07 06:13:00
12:33 AM,28.4,28.4,100,29.93,0.5,NNE,12.7,18.4,N/A,Fog,Light Freezing Fog,30,2013-02-07 06:33:00
12:54 AM,26.6,26.6,100,29.94,0.2,NNE,11.5,-,N/A,,Overcast,20,2013-02-07 06:54:00
1:13 AM,28.4,26.6,93,29.94,0.5,NNE,11.5,-,N/A,,Overcast,30,2013-02-07 07:13:00
1:33 AM,28.4,26.6,93,29.94,0.8,NNE,9.2,-,N/A,,Overcast,20,2013-02-07 07:33:00
1:54 AM,28.4,26.6,93,29.95,1.8,NNE,11.5,-,N/A,,Overcast,20,2013-02-07 07:54:00
2:13 AM,26.6,26.6,100,29.96,3.0,NNE,11.5,17.3,N/A,,Overcast,30,2013-02-07 08:13:00
2:33 AM,26.6,24.8,93,29.97,3.0,NNE,10.4,-,N/A,,Overcast,30,2013-02-07 08:33:00
2:54 AM,24.8,24.8,100,29.97,2.5,NNE,12.7,17.3,N/A,,Overcast,30,2013-02-07 08:54:00
3:13 AM,24.8,24.8,100,29.98,2.0,NE,10.4,-,N/A,,Overcast,40,2013-02-07 09:13:00
3:33 AM,24.8,23.0,93,29.97,2.0,NE,11.5,-,N/A,,Overcast,40,2013-02-07 09:33:00
3:54 AM,24.8,23.0,93,29.98,1.8,NNE,8.1,-,N/A,,Overcast,30,2013-02-07 09:54:00
4:13 AM,23.0,21.2,93,29.99,1.8,NNE,6.9,-,N/A,,Overcast,20,2013-02-07 10:13:00
4:33 AM,23.0,21.2,93,29.99,1.8,NNE,10.4,-,N/A,,Overcast,20,2013-02-07 10:33:00
4:54 AM,23.0,21.2,93,30.00,1.8,NNE,10.4,-,N/A,,Overcast,20,2013-02-07 10:54:00
5:13 AM,23.0,21.2,93,30.00,1.5,NNE,9.2,-,N/A,,Overcast,20,2013-02-07 11:13:00
5:33 AM,23.0,21.2,93,30.00,1.5,North,8.1,-,N/A,,Overcast,10,2013-02-07 11:33:00
5:54 AM,23.0,21.2,93,30.00,1.2,NNE,9.2,-,N/A,,Overcast,30,2013-02-07 11:54:00
6:13 AM,23.0,21.2,93,30.01,1.5,NNE,11.5,-,N/A,,Overcast,20,2013-02-07 12:13:00
6:34 AM,23.0,21.2,93,30.01,1.2,NNE,10.4,-,N/A,,Overcast,20,2013-02-07 12:34:00
6:53 AM,23.0,21.2,93,30.02,1.2,North,10.4,-,N/A,,Overcast,10,2013-02-07 12:53:00
7:13 AM,23.0,21.2,93,30.02,1.2,North,8.1,-,N/A,,Overcast,10,2013-02-07 13:13:00
7:34 AM,21.2,21.2,100,30.02,1.5,NNE,9.2,16.1,N/A,,Overcast,20,2013-02-07 13:34:00
7:53 AM,21.2,21.2,100,30.03,0.8,NNE,10.4,-,N/A,,Overcast,20,2013-02-07 13:53:00
8:13 AM,21.2,21.2,100,30.06,0.8,North,8.1,-,N/A,,Overcast,10,2013-02-07 14:13:00
8:33 AM,21.2,21.2,100,30.07,0.8,North,8.1,-,N/A,,Overcast,10,2013-02-07 14:33:00
9:13 AM,21.2,21.2,100,30.08,1.0,North,9.2,-,N/A,,Overcast,10,2013-02-07 15:13:00
9:33 AM,21.2,21.2,100,30.08,1.0,North,8.1,-,N/A,,Overcast,10,2013-02-07 15:33:00
9:54 AM,21.2,21.2,100,30.09,1.2,North,5.8,-,N/A,,Overcast,360,2013-02-07 15:54:00
10:13 AM,21.2,21.2,100,30.10,1.8,North,4.6,-,N/A,,Overcast,10,2013-02-07 16:13:00
10:33 AM,21.2,21.2,100,30.10,2.5,NNE,8.1,-,N/A,,Overcast,20,2013-02-07 16:33:00
10:54 AM,21.2,21.2,100,30.11,3.0,North,6.9,-,N/A,,Overcast,10,2013-02-07 16:54:00
11:13 AM,23.0,21.2,93,30.12,3.0,North,6.9,-,N/A,,Overcast,350,2013-02-07 17:13:00
11:33 AM,21.2,21.2,100,30.11,3.0,NNE,6.9,-,N/A,,Overcast,20,2013-02-07 17:33:00
11:53 AM,23.0,21.2,93,30.12,4.0,North,5.8,-,N/A,,Overcast,360,2013-02-07 17:53:00
12:13 PM,23.0,21.2,93,30.11,4.0,North,8.1,-,N/A,,Overcast,10,2013-02-07 18:13:00
12:34 PM,23.0,21.2,93,30.10,4.0,NNE,6.9,-,N/A,,Overcast,20,2013-02-07 18:34:00
12:53 PM,23.0,21.2,93,30.10,4.0,North,4.6,-,N/A,,Overcast,360,2013-02-07 18:53:00
1:13 PM,23.0,21.2,93,30.10,4.0,North,5.8,-,N/A,,Overcast,10,2013-02-07 19:13:00
1:34 PM,23.0,21.2,93,30.11,4.0,North,8.1,-,N/A,,Overcast,10,2013-02-07 19:34:00
1:53 PM,23.0,21.2,93,30.11,4.0,North,6.9,-,N/A,,Overcast,10,2013-02-07 19:53:00
2:13 PM,23.0,21.2,93,30.11,4.0,North,8.1,-,N/A,,Overcast,360,2013-02-07 20:13:00
2:33 PM,23.0,21.2,93,30.11,5.0,North,8.1,-,N/A,,Overcast,10,2013-02-07 20:33:00
2:53 PM,23.0,21.2,93,30.10,4.0,NNE,9.2,-,N/A,,Overcast,20,2013-02-07 20:53:00
3:13 PM,23.0,21.2,93,30.12,5.0,North,8.1,-,N/A,,Overcast,10,2013-02-07 21:13:00
3:33 PM,23.0,21.2,93,30.12,5.0,NNE,10.4,-,N/A,,Overcast,20,2013-02-07 21:33:00
3:53 PM,23.0,21.2,93,30.13,4.0,North,8.1,-,N/A,,Overcast,10,2013-02-07 21:53:00
4:13 PM,23.0,21.2,93,30.14,5.0,North,6.9,-,N/A,,Overcast,10,2013-02-07 22:13:00
4:33 PM,23.0,21.2,93,30.14,4.0,NNE,10.4,-,N/A,,Overcast,20,2013-02-07 22:33:00
4:53 PM,23.0,21.2,93,30.14,4.0,NNE,8.1,-,N/A,,Overcast,20,2013-02-07 22:53:00
5:33 PM,23.0,21.2,93,30.16,4.0,NNE,10.4,-,N/A,,Overcast,20,2013-02-07 23:33:00
5:53 PM,21.2,21.2,100,30.17,4.0,NNE,11.5,-,N/A,,Overcast,30,2013-02-07 23:53:00
6:14 PM,21.2,21.2,100,30.17,5.0,NNE,8.1,-,N/A,,Overcast,30,2013-02-08 00:14:00
6:33 PM,21.2,21.2,100,30.18,5.0,NNE,10.4,-,N/A,,Overcast,30,2013-02-08 00:33:00
6:54 PM,21.2,19.4,93,30.19,7.0,NNE,9.2,-,N/A,,Overcast,20,2013-02-08 00:54:00
7:13 PM,21.2,19.4,93,30.20,7.0,NNE,10.4,-,N/A,,Overcast,30,2013-02-08 01:13:00
7:33 PM,21.2,19.4,93,30.20,5.0,NNE,5.8,-,N/A,,Overcast,30,2013-02-08 01:33:00
7:53 PM,21.2,19.4,93,30.20,7.0,North,9.2,-,N/A,,Overcast,10,2013-02-08 01:53:00
8:13 PM,21.2,19.4,93,30.21,5.0,NNE,8.1,-,N/A,,Overcast,20,2013-02-08 02:13:00
8:33 PM,21.2,19.4,93,30.21,5.0,NNE,8.1,-,N/A,,Overcast,30,2013-02-08 02:33:00
8:53 PM,21.2,19.4,93,30.21,5.0,NNE,9.2,-,N/A,,Overcast,30,2013-02-08 02:53:00
9:13 PM,21.2,19.4,93,30.21,5.0,NNE,9.2,-,N/A,,Overcast,30,2013-02-08 03:13:00
9:33 PM,21.2,19.4,93,30.22,5.0,NE,6.9,-,N/A,,Overcast,40,2013-02-08 03:33:00
9:54 PM,21.2,19.4,93,30.22,5.0,ENE,6.9,-,N/A,,Overcast,60,2013-02-08 03:54:00
10:13 PM,21.2,19.4,93,30.22,5.0,NE,6.9,-,N/A,,Overcast,50,2013-02-08 04:13:00
10:33 PM,21.2,19.4,93,30.22,5.0,NE,3.5,-,N/A,,Overcast,40,2013-02-08 04:33:00
10:54 PM,21.2,19.4,93,30.22,4.0,ENE,6.9,-,N/A,,Overcast,60,2013-02-08 04:54:00
11:13 PM,21.2,19.4,93,30.21,5.0,ENE,5.8,-,N/A,,Overcast,60,2013-02-08 05:13:00
11:33 PM,21.2,19.4,93,30.21,10.0,NE,8.1,-,N/A,,Overcast,50,2013-02-08 05:33:00
11:54 PM,19.4,19.4,100,30.23,10.0,ENE,5.8,-,N/A,,Overcast,60,2013-02-08 05:54:00